When you browse on this site, cookies collect data to enhance your experience and personalize the content and advertising you see.
Visit our Privacy Policy to learn more. By continuing to use the site, you agree to this use of cookies and data.
  • Em Portugal
  • Lista de países
  • Para 7 dias
  • Temperatura da água
  • Mapa do tempo
  • Widgets de tempo
  • user-avatar
    Iniciar Sessão

    Previsão horária em Shaki

    Hoje, 28 Fevereiro, Sexta-feira

    Tempo Temperatura Precipitação Vento Pressão Humidade
    00:00 +9°C° 0 mm 0 m/s 732 mmHg 36%
    01:00 +9°C° 0 mm 0 m/s 731 mmHg 36%
    02:00 +8°C° 0 mm 0 m/s 731 mmHg 36%
    03:00 +9°C° 0 mm 1 m/s 730 mmHg 36%
    04:00 +8°C° 0 mm 0 m/s 729 mmHg 37%
    05:00 +7°C° 0 mm 0 m/s 729 mmHg 37%
    06:00 +7°C° 0 mm 0 m/s 729 mmHg 38%
    07:00 +10°C° 0 mm 1 m/s 729 mmHg 37%
    08:00 +11°C° 0 mm 1 m/s 728 mmHg 37%
    09:00 +13°C° 0 mm 1 m/s 728 mmHg 37%
    10:00 +14°C° 0 mm 2 m/s 728 mmHg 35%
    11:00 +16°C° 0 mm 3 m/s 728 mmHg 33%
    12:00 +18°C° 0 mm 4 m/s 728 mmHg 31%
    13:00 +18°C° 0 mm 4 m/s 727 mmHg 29%
    14:00 +19°C° 0 mm 5 m/s 727 mmHg 27%
    15:00 +20°C° 0 mm 5 m/s 727 mmHg 25%
    16:00 +17°C° 0 mm 5 m/s 727 mmHg 26%
    17:00 +16°C° 0 mm 5 m/s 728 mmHg 27%
    18:00 +14°C° 0 mm 4 m/s 729 mmHg 29%
    19:00 +14°C° 0 mm 5 m/s 729 mmHg 29%
    20:00 +13°C° 0 mm 5 m/s 730 mmHg 30%
    21:00 +13°C° 0 mm 5 m/s 730 mmHg 31%
    22:00 +12°C° 0 mm 5 m/s 731 mmHg 37%
    23:00 +11°C° 0 mm 4 m/s 731 mmHg 42%

    Amanhã, 29 Fevereiro, Sábado

    Tempo Temperatura Precipitação Vento Pressão Humidade
    00:00 +11°C° 0 mm 4 m/s 732 mmHg 48%
    01:00 +10°C° 0 mm 3 m/s 732 mmHg 49%
    02:00 +10°C° 0 mm 2 m/s 732 mmHg 51%
    03:00 +10°C° 0 mm 1 m/s 732 mmHg 52%
    04:00 +10°C° 0 mm 1 m/s 732 mmHg 51%
    05:00 +10°C° 0 mm 1 m/s 733 mmHg 50%
    06:00 +10°C° 0 mm 1 m/s 733 mmHg 49%
    07:00 +10°C° 0 mm 2 m/s 733 mmHg 48%
    08:00 +11°C° 0 mm 3 m/s 733 mmHg 46%
    09:00 +13°C° 0 mm 3 m/s 733 mmHg 45%
    10:00 +13°C° 0 mm 4 m/s 733 mmHg 46%
    11:00 +14°C° 0 mm 5 m/s 732 mmHg 47%
    12:00 +15°C° 0 mm 5 m/s 732 mmHg 47%
    13:00 +15°C° 0 mm 5 m/s 731 mmHg 46%
    14:00 +15°C° 0 mm 5 m/s 731 mmHg 45%
    15:00 +15°C° 0 mm 4 m/s 730 mmHg 44%
    16:00 +14°C° 0 mm 4 m/s 731 mmHg 50%
    17:00 +12°C° 0 mm 3 m/s 731 mmHg 56%
    18:00 +12°C° 0 mm 2 m/s 731 mmHg 61%
    19:00 +10°C° 0 mm 2 m/s 731 mmHg 63%
    20:00 +9°C° 0 mm 2 m/s 730 mmHg 65%
    21:00 +8°C° 0 mm 2 m/s 730 mmHg 67%
    22:00 +8°C° 0 mm 2 m/s 730 mmHg 68%
    23:00 +9°C° 0 mm 1 m/s 730 mmHg 70%

    Depois de amanhã, 1 Março, Domingo

    Tempo Temperatura Precipitação Vento Pressão Humidade
    00:00 +8°C° 0 mm 1 m/s 730 mmHg 71%
    01:00 +8°C° 0 mm 1 m/s 730 mmHg 72%
    02:00 +8°C° 0 mm 1 m/s 729 mmHg 72%
    03:00 +9°C° 0 mm 1 m/s 729 mmHg 72%
    04:00 +9°C° 0.1 mm 1 m/s 729 mmHg 72%
    05:00 +9°C° 0.1 mm 1 m/s 730 mmHg 72%
    06:00 +9°C° 0.1 mm 1 m/s 730 mmHg 72%
    07:00 +9°C° 0 mm 1 m/s 730 mmHg 69%
    08:00 +10°C° 0 mm 1 m/s 731 mmHg 66%
    09:00 +11°C° 0 mm 1 m/s 731 mmHg 63%
    10:00 +12°C° 0 mm 1 m/s 732 mmHg 61%
    11:00 +13°C° 0 mm 2 m/s 732 mmHg 58%
    12:00 +14°C° 0 mm 2 m/s 732 mmHg 56%
    13:00 +15°C° 0 mm 2 m/s 732 mmHg 55%
    14:00 +15°C° 0 mm 2 m/s 732 mmHg 54%
    15:00 +15°C° 0 mm 2 m/s 733 mmHg 54%
    16:00 +14°C° 0 mm 2 m/s 733 mmHg 55%
    17:00 +14°C° 0 mm 2 m/s 734 mmHg 57%
    18:00 +13°C° 0 mm 2 m/s 735 mmHg 58%
    19:00 +11°C° 0 mm 3 m/s 735 mmHg 62%
    20:00 +10°C° 0 mm 4 m/s 736 mmHg 66%
    21:00 +8°C° 0 mm 4 m/s 736 mmHg 70%
    22:00 +7°C° 0.1 mm 4 m/s 737 mmHg 71%
    23:00 +7°C° 0.1 mm 4 m/s 737 mmHg 72%

    2 Março, Segunda-feira

    Tempo Temperatura Precipitação Vento Pressão Humidade
    00:00 +6°C° 0.1 mm 4 m/s 737 mmHg 74%
    01:00 +5°C° 0 mm 4 m/s 738 mmHg 75%
    02:00 +5°C° 0 mm 3 m/s 738 mmHg 76%
    03:00 +6°C° 0 mm 2 m/s 738 mmHg 77%
    04:00 +6°C° 0 mm 2 m/s 738 mmHg 80%
    05:00 +5°C° 0 mm 2 m/s 739 mmHg 83%
    06:00 +5°C° 0 mm 2 m/s 739 mmHg 86%
    07:00 +5°C° 0.1 mm 2 m/s 739 mmHg 87%
    08:00 +6°C° 0.1 mm 2 m/s 740 mmHg 88%
    09:00 +6°C° 0.1 mm 2 m/s 740 mmHg 89%
    10:00 +6°C° 0.2 mm 2 m/s 740 mmHg 89%
    11:00 +6°C° 0.2 mm 2 m/s 740 mmHg 90%
    12:00 +6°C° 0.2 mm 2 m/s 739 mmHg 90%
    13:00 +6°C° 0.1 mm 2 m/s 739 mmHg 88%
    14:00 +7°C° 0.1 mm 2 m/s 739 mmHg 86%
    15:00 +8°C° 0.1 mm 1 m/s 739 mmHg 83%
    16:00 +8°C° 0 mm 1 m/s 739 mmHg 84%
    17:00 +8°C° 0 mm 1 m/s 739 mmHg 85%
    18:00 +7°C° 0 mm 1 m/s 739 mmHg 86%
    19:00 +7°C° 0.1 mm 1 m/s 740 mmHg 87%
    20:00 +7°C° 0.1 mm 1 m/s 740 mmHg 88%
    21:00 +7°C° 0.1 mm 1 m/s 740 mmHg 89%
    22:00 +7°C° 0.1 mm 1 m/s 740 mmHg 90%
    23:00 +7°C° 0.1 mm 1 m/s 740 mmHg 90%

    3 Março, Terça-feira

    Tempo Temperatura Precipitação Vento Pressão Humidade
    00:00 +6°C° 0.1 mm 1 m/s 740 mmHg 91%
    01:00 +6°C° 0 mm 1 m/s 740 mmHg 91%
    02:00 +6°C° 0 mm 1 m/s 739 mmHg 90%
    03:00 +6°C° 0 mm 1 m/s 739 mmHg 90%
    04:00 +5°C° 0 mm 0 m/s 739 mmHg 89%
    05:00 +4°C° 0 mm 0 m/s 739 mmHg 89%
    06:00 +4°C° 0 mm 0 m/s 739 mmHg 89%
    07:00 +5°C° 0 mm 0 m/s 739 mmHg 85%
    08:00 +6°C° 0 mm 0 m/s 739 mmHg 82%
    09:00 +7°C° 0 mm 0 m/s 740 mmHg 78%
    10:00 +9°C° 0 mm 1 m/s 739 mmHg 74%
    11:00 +10°C° 0 mm 1 m/s 739 mmHg 70%
    12:00 +12°C° 0 mm 1 m/s 739 mmHg 65%
    13:00 +12°C° 0 mm 1 m/s 738 mmHg 62%
    14:00 +13°C° 0 mm 2 m/s 738 mmHg 59%
    15:00 +13°C° 0 mm 2 m/s 738 mmHg 56%
    16:00 +12°C° 0 mm 1 m/s 738 mmHg 60%
    17:00 +11°C° 0 mm 1 m/s 738 mmHg 64%
    18:00 +9°C° 0 mm 0 m/s 738 mmHg 68%
    19:00 +10°C° 0 mm 1 m/s 739 mmHg 68%
    20:00 +9°C° 0 mm 1 m/s 739 mmHg 68%
    21:00 +9°C° 0 mm 1 m/s 739 mmHg 69%
    22:00 +9°C° 0 mm 1 m/s 740 mmHg 70%
    23:00 +8°C° 0 mm 1 m/s 740 mmHg 71%

    4 Março, Quarta-feira

    Tempo Temperatura Precipitação Vento Pressão Humidade
    00:00 +8°C° 0 mm 1 m/s 740 mmHg 72%
    01:00 +8°C° 0 mm 1 m/s 740 mmHg 73%
    02:00 +7°C° 0 mm 1 m/s 740 mmHg 74%
    03:00 +7°C° 0 mm 1 m/s 740 mmHg 76%
    04:00 +7°C° 0 mm 1 m/s 740 mmHg 77%
    05:00 +7°C° 0 mm 1 m/s 740 mmHg 78%
    06:00 +6°C° 0 mm 1 m/s 740 mmHg 79%
    07:00 +8°C° 0 mm 1 m/s 740 mmHg 75%
    08:00 +9°C° 0 mm 1 m/s 740 mmHg 71%
    09:00 +10°C° 0 mm 1 m/s 740 mmHg 66%
    10:00 +11°C° 0 mm 1 m/s 740 mmHg 64%
    11:00 +12°C° 0 mm 2 m/s 740 mmHg 61%
    12:00 +13°C° 0 mm 2 m/s 739 mmHg 58%
    13:00 +14°C° 0 mm 2 m/s 739 mmHg 57%
    14:00 +14°C° 0 mm 2 m/s 738 mmHg 56%
    15:00 +15°C° 0 mm 2 m/s 738 mmHg 54%
    16:00 +14°C° 0 mm 2 m/s 738 mmHg 58%
    17:00 +13°C° 0 mm 1 m/s 738 mmHg 62%
    18:00 +11°C° 0 mm 1 m/s 738 mmHg 67%
    19:00 +11°C° 0 mm 1 m/s 738 mmHg 68%
    20:00 +9°C° 0 mm 2 m/s 738 mmHg 70%
    21:00 +9°C° 0 mm 2 m/s 738 mmHg 71%
    22:00 +8°C° 0 mm 2 m/s 738 mmHg 75%
    23:00 +8°C° 0 mm 2 m/s 738 mmHg 78%
    Mostrar mais